Weather History for Akron, OH

Change the Weather History Date:

Thursday, May 9, 2013

  Actual Average (KCAK) Record (KCAK)
Temperature  
Mean Temperature 66 °F 57 °F  
Max Temperature 79 °F 67 °F 88 °F (1936)
Min Temperature 55 °F 46 °F 26 °F (1966)
Degree Days  
Heating Degree Days 0 9  
Month to date heating degree days 88  
Since 1 July heating degree days 5964  
Cooling Degree Days 2 1  
Month to date cooling degree days 3  
Year to date cooling degree days 9  
Growing Degree Days 16 (Base 50)    
Moisture  
Dew Point 48 °F    
Average Humidity 58    
Maximum Humidity 97    
Minimum Humidity 25    
Precipitation  
Precipitation 0.01 in 0.13 in 0.96 in (2003)
Month to date precipitation 1.16  
Year to date precipitation 12.61  
Snow  
Snow 0.00 in 0.00 in - ()
Month to date snowfall 0.1  
Since 1 July snowfall 47.5  
Snow Depth -    
Sea Level Pressure  
Sea Level Pressure 29.96 in    
Wind  
Wind Speed 3 mph (NNW)    
Max Wind Speed 10 mph    
Max Gust Speed 18 mph    
Visibility 9 miles    
Events      
T = Trace of Precipitation, MM = Missing Value Source: NWS Daily Summary

Daily Weather History Graph

Daily Weather History Graph

Search for Another Location

Airport:

Trip Planner

Search our weather history database for the weather conditions in past years. The results will help you decide how hot, cold, wet, or windy it might be!

Date:

Astronomy

May. 09, 2013 Rise Set
Actual Time 6:13 AM EDT 8:31 PM EDT
Civil Twilight 5:43 AM EDT 9:02 PM EDT
Nautical Twilight 5:05 AM EDT 9:40 PM EDT
Astronomical Twilight 4:23 AM EDT 10:22 PM EDT
Moon 5:57 AM EDT (5/9) 8:25 PM EDT (5/9)
Length of Visible Light 15h 18m
Length of Day
14h 17m
Waning Crescent, 0% of the Moon is Illuminated
May 9
Waning Crescent
May 9
New
May 18
First Quarter
May 25
Full
May 31
Last Quarter

Hourly Weather History & Observations

Time (EDT) Temp. Dew Point Humidity Pressure Visibility Wind Dir Wind Speed Gust Speed Precip Events Conditions
12:54 AM 57.9 °F 55.9 °F 93% 29.94 in 10.0 mi South 3.5 mph - 0.01 in   Overcast
1:54 AM 57.9 °F 55.9 °F 93% 29.94 in 10.0 mi Calm Calm - N/A   Overcast
2:54 AM 57.9 °F 57.0 °F 97% 29.93 in 8.0 mi Calm Calm - N/A   Overcast
3:54 AM 57.9 °F 57.0 °F 97% 29.93 in 7.0 mi Calm Calm - N/A   Overcast
4:54 AM 57.0 °F 54.0 °F 89% 29.92 in 10.0 mi Calm Calm - N/A   Mostly Cloudy
5:54 AM 55.0 °F 54.0 °F 96% 29.94 in 5.0 mi Calm Calm - N/A   Clear
6:54 AM 55.0 °F 54.0 °F 96% 29.96 in 5.0 mi Calm Calm - N/A   Overcast
7:54 AM 59.0 °F 55.0 °F 87% 29.98 in 10.0 mi Calm Calm - N/A   Scattered Clouds
8:54 AM 60.1 °F 55.0 °F 83% 29.99 in 10.0 mi WSW 3.5 mph - N/A   Overcast
9:54 AM 63.0 °F 50.0 °F 63% 29.98 in 10.0 mi NW 4.6 mph - N/A   Overcast
10:54 AM 69.1 °F 53.1 °F 57% 29.98 in 10.0 mi North 8.1 mph - N/A   Clear
11:54 AM 72.0 °F 53.1 °F 51% 29.98 in 10.0 mi NNW 10.4 mph - N/A   Clear
12:54 PM 73.4 °F 46.4 °F 38% 29.99 in 10.0 mi NNW 3.5 mph - N/A   Clear
1:54 PM 75.9 °F 44.1 °F 32% 29.97 in 10.0 mi WNW 9.2 mph - N/A   Clear
2:54 PM 77.0 °F 41.0 °F 28% 29.96 in 10.0 mi West 4.6 mph 18.4 mph N/A   Clear
3:54 PM 78.1 °F 39.9 °F 25% 29.95 in 10.0 mi West 10.4 mph 17.3 mph N/A   Clear
4:54 PM 77.0 °F 42.1 °F 29% 29.95 in 10.0 mi North 9.2 mph - N/A   Clear
5:54 PM 75.9 °F 37.9 °F 25% 29.94 in 10.0 mi NNW 8.1 mph - N/A   Clear
6:54 PM 73.0 °F 37.0 °F 27% 29.94 in 10.0 mi NNE 6.9 mph - N/A   Clear
7:54 PM 69.1 °F 41.0 °F 36% 29.96 in 10.0 mi NNE 5.8 mph - N/A   Scattered Clouds
8:54 PM 70.0 °F 37.0 °F 30% 29.96 in 10.0 mi East 4.6 mph - N/A   Clear
9:54 PM 66.9 °F 39.9 °F 37% 29.96 in 10.0 mi SE 4.6 mph - N/A   Clear
10:54 PM 66.0 °F 39.0 °F 37% 29.96 in 10.0 mi SSE 3.5 mph - N/A   Clear
11:54 PM 62.1 °F 44.1 °F 52% 29.96 in 10.0 mi Calm Calm - N/A   Clear